Tracking 30995 objects as of 5-Jul-2025
HD Live streaming from Space Station
objects crossing your sky now

STARLINK-3890

Track STARLINK-3890 now!
10-day predictions
STARLINK-3890 is classified as:


NORAD ID: 52455
Int'l Code: 2022-049E
Perigee: 545.8 km
Apogee: 547.9 km
Inclination: 53.2 °
Period: 95.4 minutes
Semi major axis: 6917 km
RCS: Unknown
Launch date: May 6, 2022
Source: United States (US)
Launch site: AIR FORCE EASTERN TEST RANGE (AFETR)
Your satellite tracking list
CZ-3C DEB
Track 1 satellite(s)




NASA's NSSDC Master Catalog

Two Line Element Set (TLE):
1 52455U 22049E   25186.16269346 -.00005261  00000-0 -31261-3 0  9999
2 52455  53.2165 100.3106 0001467  88.8768 271.2393 15.08851165174749
Source of the keplerian elements: AFSPC